IVALO current weather conditions

sailwx.info

Wind from 290 at 14 knots

Air temperature 4.0° C
Visibility: greater than 5.4 NM
Dewpoint -0.0° C
Present weather: Light rain showers.

Last reported at 2015-May-24 17:20 UTC.
Time now 2015-May-24 19:20 UTC

Location: N 68°37' E 027°25'.
View on Google Maps.

See reports from other nearby stations

  
Tides and Currents Weather Stations Pressure Air Temp Water Temp Dewpoint Dewpoint Depression Visibility Wind Speed Wind Dir Waves Ship Positions
date/time (UTC)wind fromknots sea level pressurealtimeterstation pressurevisibilityair tempwater tempwave heightnotes
2015-May-24 18:20 290 16 gusting 27 5.4 4.0 Light rain.
2015-May-24 17:50 290 11 gusting 20 5.4 4.0 Light rain.
2015-May-24 17:20 290 14 5.4 4.0 Light rain showers.
2015-May-24 16:50 280 11 gusting 27 5.4 4.0 Light rain showers.
2015-May-24 16:20 290 15 gusting 30 5.4 5.0
2015-May-24 15:50 290 13 5.4 5.0 Light rain showers.
2015-May-24 15:20 280 15 gusting 29 5.4 5.0
2015-May-24 14:50 270 13 5.4 4.0
2015-May-24 14:20 270 13 gusting 24 5.4 4.0 Light rain showers.
2015-May-24 13:50 250 11 5.4 3.0 Light rain.
2015-May-24 13:20 280 11 3.2 3.0 Light rain.
2015-May-24 12:50 280 12 5.4 3.0 Rain.
2015-May-24 12:20 280 8 5.4 3.0 Light rain showers.
2015-May-24 11:50 290 17 5.4 4.0 Light rain showers.
2015-May-24 11:20 280 13 5.4 5.0
2015-May-24 10:50 280 13 5.4 5.0
2015-May-24 10:20 280 13 5.4 4.0
2015-May-24 09:50 280 11 5.4 4.0 Light rain showers.
2015-May-24 09:20 290 13 5.4 4.0 Light rain showers.
2015-May-24 08:50 280 10 5.4 3.0 Light rain.
2015-May-24 08:20 270 12 5.4 2.0 Light rain snow.
2015-May-24 07:50 260 11 5.4 3.0 Light rain snow.
2015-May-24 07:20 250 12 4.3 2.0 Light rain snow.
2015-May-24 06:50 260 12 5.4 2.0 Light rain.
2015-May-24 06:20 260 12 5.4 2.0 Light rain.
2015-May-24 05:50 260 10 5.4 2.0 Light rain.
2015-May-24 05:20 270 12 5.4 2.0 Light rain.
2015-May-24 04:50 270 12 5.4 3.0 Light rain.
2015-May-24 04:20 260 12 5.4 3.0 Light rain.
2015-May-24 03:50 260 9 3.8 3.0 Light drizzle.
2015-May-24 03:20 240 9 3.8 3.0 Light rain.
2015-May-24 02:50 250 9 5.4 3.0 Light rain showers.
2015-May-24 02:20 240 10 5.4 3.0
2015-May-24 01:50 250 12 5.4 2.0 Light rain.
2015-May-24 01:20 240 12 5.4 2.0
2015-May-24 00:50 230 11 5.4 2.0
2015-May-24 00:20 230 10 5.4 2.0 Light rain.
2015-May-23 23:50 220 11 5.4 2.0 Light rain.
2015-May-23 23:20 220 11 5.4 2.0 Light rain showers.
2015-May-23 22:50 230 8 5.4 2.0 Light rain showers.
2015-May-23 22:20 230 8 5.4 2.0
2015-May-23 21:50 230 8 5.4 2.0 Light rain.
2015-May-23 21:20 260 7 5.4 3.0
2015-May-23 20:50 230 8 5.4 4.0
2015-May-23 20:20 180 5 5.4 5.0
2015-May-23 19:50 160 4 5.4 5.0
2015-May-23 19:20 150 4 5.4 6.0
2015-May-23 18:50 130 4 5.4 6.0
2015-May-23 18:20 160 3 5.4 6.0
2015-May-23 17:50 170 4 5.4 6.0
2015-May-23 17:20 160 4 5.4 6.0
2015-May-23 16:50 190 6 5.4 6.0
2015-May-23 16:20 170 5 5.4 6.0
2015-May-23 15:50 210 11 5.4 6.0 Light rain showers.
2015-May-23 15:20 090 3 3.8 8.0 Rain showers.
2015-May-23 14:50 100 4 5.4 8.0 Light rain showers.
2015-May-23 14:20 120 3 5.4 8.0
2015-May-23 13:50 120 3 5.4 8.0 Light rain.
2015-May-23 13:20 120 2 5.4 8.0 Light rain.
2015-May-23 12:50 110 3 5.4 8.0 Light rain.
2015-May-23 12:20 170 2 5.4 7.0 Light rain.
2015-May-23 11:50 170 7 5.4 8.0 Light rain.
2015-May-23 11:20 160 9 5.4 8.0 Light rain.
2015-May-23 10:50 160 8 5.4 9.0 Light rain.
2015-May-23 10:20 160 8 5.4 9.0 Light rain.
2015-May-23 09:50 160 9 5.4 9.0 Light rain.
2015-May-23 09:20 160 11 5.410.0 Light rain showers.
2015-May-23 08:50 170 9 5.4 9.0 Light rain showers.
2015-May-23 08:20 160 8 5.4 8.0 Light rain.
2015-May-23 07:50 160 9 5.4 9.0 Light rain.
2015-May-23 07:20 160 9 5.4 9.0 Light rain showers.
2015-May-23 06:50 170 8 5.4 9.0
2015-May-23 06:20 170 7 5.4 8.0
2015-May-23 05:50 170 7 5.4 8.0 Light drizzle.
2015-May-23 05:20 170 7 5.4 8.0 Light drizzle.
2015-May-23 04:50 160 8 5.4 8.0 Light rain.
2015-May-23 04:20 170 7 5.4 7.0 Light rain.
2015-May-23 03:50 170 7 5.4 7.0 Light rain.
2015-May-23 03:20 170 7 5.4 7.0 Light rain.
2015-May-23 02:50 170 7 5.4 7.0 Light rain showers.
2015-May-23 02:20 170 7 5.4 7.0
2015-May-23 01:50 170 8 5.4 7.0 Light drizzle.
2015-May-23 01:20 170 9 5.4 7.0 Light drizzle.
2015-May-23 00:50 180 8 5.4 7.0 Light rain.
2015-May-23 00:20 160 7 5.4 7.0 Light rain.
2015-May-22 23:50 160 7 5.4 7.0 Light rain.
2015-May-22 23:20 150 8 5.4 7.0 Light rain.
2015-May-22 22:50 170 11 gusting 22 5.4 8.0 Light rain.
2015-May-22 22:20 180 10 5.4 9.0 Light rain.
2015-May-22 21:50 190 15 5.4 9.0
2015-May-22 21:20 180 7 10.0
2015-May-22 20:50 190 7 11.0
2015-May-22 20:20 170 5 11.0
2015-May-22 19:50 180 7 11.0
2015-May-22 19:20 170 5 11.0